STARLINK-36758

Last updated on Wed Mar 25 2026 00:02:05 GMT+0000 (Coordinated Universal Time)

1 67926U 26036Y 26083.50002314 -.01862515 00000+0 -51766-1 0 9996 2 67926 42.9996 161.8266 0001676 279.1886 122.1572 15.39446781 6028
UTC large
Height (km)
Speed (km/s)
/
Latitude / Longitude
Inclination (degrees)
Orbital Period (minutes)
Azimuth
Elevation
Range (km)
Doppler Factor

Next 0 passes for location: London (51.5072 / 0.1276)

Sorry there are no passes over London.